This is the latest recevied weather packets stored in our database for station/object WX4LTG. If no packets are shown the sender has not sent any weather packets the latest 10 day(s).
| Time | Temp. | Humidity | Pressure | Rain* | Wind** | Luminosity | Snow |
|---|---|---|---|---|---|---|---|
| 1777239560 | 22.78° C | 29% | 1010.4 hPa | 0 mm | - | 219 W/m² | - |
| 1777239256 | 23.89° C | 28% | 1010.2 hPa | 0 mm | - | 267 W/m² | - |
| 1777238954 | 23.89° C | 28% | 1010.4 hPa | 0 mm | - | 314 W/m² | - |
| 1777238651 | 23.33° C | 29% | 1010.2 hPa | 0 mm | - | 419 W/m² | - |
| 1777238348 | 23.89° C | 29% | 1010.2 hPa | 0 mm | - | 137 W/m² | - |
| 1777238044 | 23.89° C | 28% | 1010.2 hPa | 0 mm | - | 727 W/m² | - |
| 1777237741 | 24.44° C | 28% | 1010.5 hPa | 0 mm | - | 716 W/m² | - |
| 1777237438 | 23.89° C | 27% | 1010.5 hPa | 0 mm | - | 731 W/m² | - |
| 1777237135 | 23.89° C | 28% | 1010.3 hPa | 0 mm | - | 708 W/m² | - |
| 1777236833 | 24.44° C | 27% | 1010.5 hPa | 0 mm | - | 672 W/m² | - |
| 1777236533 | 23.89° C | 27% | 1010.4 hPa | 0 mm | - | 731 W/m² | - |
| 1777236230 | 23.89° C | 27% | 1010.4 hPa | 0 mm | - | 741 W/m² | - |
| 1777235925 | 23.89° C | 28% | 1010.3 hPa | 0 mm | - | 766 W/m² | - |
| 1777235622 | 23.33° C | 28% | 1010.4 hPa | 0 mm | - | 791 W/m² | - |
| 1777235319 | 23.89° C | 28% | 1010.7 hPa | 0 mm | - | 415 W/m² | - |
| 1777235015 | 23.89° C | 29% | 1010.5 hPa | 0 mm | - | 215 W/m² | - |
| 1777234711 | 23.89° C | 29% | 1010.5 hPa | 0 mm | - | 789 W/m² | - |
| 1777234407 | 23.89° C | 27% | 1010.7 hPa | 0 mm | - | 754 W/m² | - |
| 1777234102 | 23.89° C | 28% | 1010.7 hPa | 0 mm | - | 752 W/m² | - |
| 1777233799 | 23.33° C | 28% | 1010.5 hPa | 0 mm | - | 767 W/m² | - |
| 1777233495 | 23.33° C | 29% | 1010.6 hPa | 0 mm | - | 763 W/m² | - |
| 1777233194 | 22.78° C | 29% | 1011 hPa | 0 mm | - | 760 W/m² | - |
| 1777232889 | 23.33° C | 28% | 1010.8 hPa | 0 mm | - | 762 W/m² | - |
| 1777232588 | 23.33° C | 28% | 1011.1 hPa | 0 mm | - | 760 W/m² | - |
| 1777232286 | 23.33° C | 28% | 1011.1 hPa | 0 mm | - | 754 W/m² | - |
* Rain latest hour (hover to see other rain measurements)
** Current wind speed in m/s (hover to see current wind gust speed)